• In Belarus
  • List of Countries
  • For 7 days
  • Water Temperature
  • Weather Map
  • Weather Widgets
  • user-avatar
    Login

    Hourly Weather Gobabis

    Today, 26 August, Monday

    Time Temperature Precipitation Wind Pressure Humidity
    00:00 +13°C° 0 mm 4 mps 642 mmHg 16%
    01:00 +12°C° 0 mm 5 mps 642 mmHg 17%
    02:00 +12°C° 0 mm 5 mps 642 mmHg 18%
    03:00 +11°C° 0 mm 4 mps 642 mmHg 19%
    04:00 +11°C° 0 mm 4 mps 642 mmHg 20%
    05:00 +12°C° 0 mm 4 mps 642 mmHg 20%
    06:00 +12°C° 0 mm 4 mps 643 mmHg 19%
    07:00 +13°C° 0 mm 3 mps 644 mmHg 19%
    08:00 +17°C° 0 mm 3 mps 644 mmHg 16%
    09:00 +21°C° 0 mm 3 mps 645 mmHg 13%
    10:00 +25°C° 0 mm 3 mps 646 mmHg 10%
    11:00 +26°C° 0 mm 2 mps 645 mmHg 9%
    12:00 +27°C° 0 mm 1 mps 645 mmHg 8%
    13:00 +26°C° 0 mm 0 mps 644 mmHg 7%
    14:00 +28°C° 0 mm 1 mps 644 mmHg 6%
    15:00 +28°C° 0 mm 1 mps 644 mmHg 6%
    16:00 +29°C° 0 mm 1 mps 643 mmHg 6%
    17:00 +25°C° 0 mm 1 mps 643 mmHg 10%
    18:00 +20°C° 0 mm 2 mps 642 mmHg 14%
    19:00 +17°C° 0 mm 2 mps 641 mmHg 18%
    20:00 +16°C° 0 mm 3 mps 641 mmHg 17%
    21:00 +15°C° 0 mm 4 mps 642 mmHg 16%
    22:00 +15°C° 0 mm 5 mps 642 mmHg 15%
    23:00 +14°C° 0 mm 4 mps 642 mmHg 16%

    Tomorrow, 27 August, Tuesday

    Time Temperature Precipitation Wind Pressure Humidity
    00:00 +13°C° 0 mm 4 mps 642 mmHg 18%
    01:00 +12°C° 0 mm 4 mps 641 mmHg 19%
    02:00 +11°C° 0 mm 3 mps 641 mmHg 19%
    03:00 +10°C° 0 mm 3 mps 641 mmHg 19%
    04:00 +9°C° 0 mm 3 mps 640 mmHg 20%
    05:00 +10°C° 0 mm 2 mps 641 mmHg 19%
    06:00 +13°C° 0 mm 2 mps 642 mmHg 18%
    07:00 +14°C° 0 mm 2 mps 643 mmHg 17%
    08:00 +17°C° 0 mm 2 mps 643 mmHg 14%
    09:00 +21°C° 0 mm 1 mps 644 mmHg 12%
    10:00 +25°C° 0 mm 1 mps 645 mmHg 9%
    11:00 +26°C° 0 mm 1 mps 644 mmHg 8%
    12:00 +28°C° 0 mm 2 mps 644 mmHg 7%
    13:00 +29°C° 0 mm 2 mps 644 mmHg 6%
    14:00 +29°C° 0 mm 2 mps 643 mmHg 6%
    15:00 +29°C° 0 mm 2 mps 643 mmHg 5%
    16:00 +30°C° 0 mm 2 mps 643 mmHg 5%
    17:00 +26°C° 0 mm 2 mps 642 mmHg 7%
    18:00 +23°C° 0 mm 2 mps 641 mmHg 10%
    19:00 +18°C° 0 mm 3 mps 640 mmHg 12%
    20:00 +17°C° 0 mm 3 mps 641 mmHg 12%
    21:00 +16°C° 0 mm 3 mps 641 mmHg 13%
    22:00 +16°C° 0 mm 3 mps 641 mmHg 13%
    23:00 +14°C° 0 mm 3 mps 641 mmHg 13%

    Day after tomorrow, 28 August, Wednesday

    Time Temperature Precipitation Wind Pressure Humidity
    00:00 +13°C° 0 mm 3 mps 641 mmHg 13%
    01:00 +12°C° 0 mm 4 mps 640 mmHg 13%
    02:00 +11°C° 0 mm 3 mps 640 mmHg 15%
    03:00 +10°C° 0 mm 3 mps 640 mmHg 17%
    04:00 +9°C° 0 mm 3 mps 639 mmHg 18%
    05:00 +10°C° 0 mm 3 mps 640 mmHg 18%
    06:00 +11°C° 0 mm 3 mps 641 mmHg 19%
    07:00 +11°C° 0 mm 3 mps 642 mmHg 19%
    08:00 +16°C° 0 mm 3 mps 642 mmHg 17%
    09:00 +19°C° 0 mm 2 mps 643 mmHg 15%
    10:00 +23°C° 0 mm 2 mps 644 mmHg 13%
    11:00 +25°C° 0 mm 2 mps 644 mmHg 11%
    12:00 +27°C° 0 mm 1 mps 643 mmHg 9%
    13:00 +29°C° 0 mm 1 mps 643 mmHg 7%
    14:00 +29°C° 0 mm 1 mps 643 mmHg 6%
    15:00 +30°C° 0 mm 2 mps 642 mmHg 6%
    16:00 +30°C° 0 mm 2 mps 642 mmHg 5%
    17:00 +26°C° 0 mm 2 mps 641 mmHg 7%
    18:00 +22°C° 0 mm 3 mps 640 mmHg 9%
    19:00 +19°C° 0 mm 3 mps 640 mmHg 11%
    20:00 +18°C° 0 mm 4 mps 640 mmHg 12%
    21:00 +18°C° 0 mm 4 mps 640 mmHg 13%
    22:00 +17°C° 0 mm 4 mps 641 mmHg 13%
    23:00 +15°C° 0 mm 4 mps 640 mmHg 15%

    29 August, Thursday

    Time Temperature Precipitation Wind Pressure Humidity
    00:00 +13°C° 0 mm 3 mps 640 mmHg 17%
    01:00 +13°C° 0 mm 2 mps 639 mmHg 19%
    02:00 +12°C° 0 mm 2 mps 639 mmHg 20%
    03:00 +12°C° 0 mm 2 mps 638 mmHg 22%
    04:00 +10°C° 0 mm 2 mps 638 mmHg 23%
    05:00 +12°C° 0 mm 2 mps 639 mmHg 21%
    06:00 +13°C° 0 mm 3 mps 640 mmHg 19%
    07:00 +16°C° 0 mm 3 mps 641 mmHg 17%
    08:00 +20°C° 0 mm 4 mps 642 mmHg 14%
    09:00 +24°C° 0 mm 6 mps 643 mmHg 11%
    10:00 +29°C° 0 mm 7 mps 644 mmHg 8%
    11:00 +30°C° 0 mm 7 mps 643 mmHg 7%
    12:00 +33°C° 0 mm 8 mps 643 mmHg 6%
    13:00 +34°C° 0 mm 8 mps 642 mmHg 5%
    14:00 +34°C° 0 mm 8 mps 641 mmHg 4%
    15:00 +33°C° 0 mm 9 mps 641 mmHg 4%
    16:00 +33°C° 0 mm 9 mps 640 mmHg 3%
    17:00 +28°C° 0 mm 7 mps 640 mmHg 5%
    18:00 +23°C° 0 mm 5 mps 639 mmHg 7%
    19:00 +19°C° 0 mm 3 mps 638 mmHg 9%
    20:00 +18°C° 0 mm 3 mps 638 mmHg 10%
    21:00 +17°C° 0 mm 3 mps 639 mmHg 10%
    22:00 +16°C° 0 mm 3 mps 639 mmHg 10%
    23:00 +14°C° 0 mm 3 mps 639 mmHg 12%

    30 August, Friday

    Time Temperature Precipitation Wind Pressure Humidity
    00:00 +14°C° 0 mm 3 mps 639 mmHg 14%
    01:00 +13°C° 0 mm 4 mps 638 mmHg 16%
    02:00 +12°C° 0 mm 3 mps 638 mmHg 18%
    03:00 +11°C° 0 mm 3 mps 638 mmHg 20%
    04:00 +11°C° 0 mm 3 mps 638 mmHg 22%
    05:00 +12°C° 0 mm 3 mps 638 mmHg 20%
    06:00 +13°C° 0 mm 3 mps 639 mmHg 19%
    07:00 +14°C° 0 mm 3 mps 640 mmHg 17%
    08:00 +18°C° 0 mm 2 mps 640 mmHg 15%
    09:00 +21°C° 0 mm 2 mps 641 mmHg 13%
    10:00 +25°C° 0 mm 2 mps 642 mmHg 10%
    11:00 +27°C° 0 mm 2 mps 641 mmHg 10%
    12:00 +29°C° 0 mm 3 mps 641 mmHg 9%
    13:00 +32°C° 0 mm 4 mps 641 mmHg 9%
    14:00 +33°C° 0 mm 6 mps 641 mmHg 8%
    15:00 +33°C° 0 mm 7 mps 640 mmHg 8%
    16:00 +34°C° 0 mm 9 mps 640 mmHg 7%
    17:00 +29°C° 0 mm 8 mps 640 mmHg 9%
    18:00 +26°C° 0 mm 7 mps 639 mmHg 10%
    19:00 +21°C° 0 mm 5 mps 639 mmHg 12%
    20:00 +19°C° 0 mm 5 mps 639 mmHg 12%
    21:00 +17°C° 0 mm 5 mps 639 mmHg 12%
    22:00 +15°C° 0 mm 4 mps 640 mmHg 12%
    23:00 +13°C° 0 mm 4 mps 640 mmHg 13%

    31 August, Saturday

    Time Temperature Precipitation Wind Pressure Humidity
    00:00 +12°C° 0 mm 4 mps 639 mmHg 14%
    01:00 +10°C° 0 mm 4 mps 639 mmHg 15%
    02:00 +8°C° 0 mm 4 mps 639 mmHg 18%
    03:00 +6°C° 0 mm 4 mps 639 mmHg 21%
    04:00 +5°C° 0 mm 4 mps 639 mmHg 24%
    05:00 +5°C° 0 mm 4 mps 640 mmHg 24%
    06:00 +5°C° 0 mm 5 mps 640 mmHg 24%
    07:00 +6°C° 0 mm 5 mps 641 mmHg 25%
    08:00 +9°C° 0 mm 5 mps 642 mmHg 21%
    09:00 +14°C° 0 mm 6 mps 642 mmHg 17%
    10:00 +17°C° 0 mm 7 mps 643 mmHg 14%
    11:00 +20°C° 0 mm 6 mps 643 mmHg 12%
    12:00 +22°C° 0 mm 6 mps 643 mmHg 10%
    13:00 +25°C° 0 mm 5 mps 642 mmHg 8%
    14:00 +25°C° 0 mm 5 mps 642 mmHg 8%
    15:00 +25°C° 0 mm 5 mps 642 mmHg 8%
    16:00 +26°C° 0 mm 5 mps 641 mmHg 8%
    17:00 +22°C° 0 mm 5 mps 641 mmHg 9%
    18:00 +19°C° 0 mm 5 mps 641 mmHg 11%
    19:00 +15°C° 0 mm 6 mps 641 mmHg 12%
    20:00 +13°C° 0 mm 6 mps 641 mmHg 12%
    21:00 +12°C° 0 mm 5 mps 641 mmHg 12%
    22:00 +10°C° 0 mm 5 mps 641 mmHg 12%
    23:00 +9°C° 0 mm 5 mps 641 mmHg 13%
    Show more